This demonstration page uses our WeatherBlox Daily Observations layout. Learn more.

Left ArrowRight Arrow

39.92423, -83.80882

Hourly Observations for January 5, 2018

Temp ( °F °C ) Dew Point ( °F °C ) Humidity (%) Winds ( mph kmh ) Pressure ( in mb ) Visibility ( mi km ) Precip ( " mm )
12:56 am 00:56 Cloudy with Light Snow 6 -14.4 2 -16.7 83 83 W 13 20 30.25 1024 4 6 N/A
1:56 am 01:56 Cloudy with Light Snow 6 -14.4 2 -16.7 83 83 WNW 9 15 30.25 1024 9 14 N/A
2:56 am 02:56 Cloudy 6 -14.4 1 -17.2 79 79 W 10 17 30.27 1025 10 16 N/A
3:56 am 03:56 Cloudy 5 -15 1 -17.2 83 83 W 9 15 30.28 1025 10 16 N/A
4:56 am 04:56 Cloudy 4 -15.6 N/A 83 83 W 8 13 30.29 1026 10 16 N/A
5:56 am 05:56 Cloudy 3 -16.1 -1 -18.3 83 83 W 8 13 30.30 1026 10 16 N/A
6:56 am 06:56 Cloudy with Light Snow 4 -15.6 N/A 83 83 W 8 13 30.32 1027 10 16 N/A
7:56 am 07:56 Cloudy with Light Snow 4 -15.6 N/A 83 83 W 7 11 30.33 1027 9 14 N/A
8:56 am 08:56 Cloudy with Light Snow 4 -15.6 N/A 83 83 W 10 17 30.35 1028 9 14 N/A
9:56 am 09:56 Cloudy with Light Snow 5 -15 -1 -18.3 76 76 WSW 12 19 30.36 1028 4 6 N/A
10:30 am 10:30 Cloudy with Light Snow 7 -14 N/A 72 72 WSW 10 17 30.45 1031 2 3 N/A
10:41 am 10:41 Cloudy with Light Snow 7 -14 N/A 72 72 W 10 17 30.45 1031 2 3 N/A
10:48 am 10:48 Cloudy with Light Snow 7 -14 1 -17 78 78 W 10 17 30.45 1031 2 3 N/A
10:51 am 10:51 Cloudy with Light Snow 7 -14 1 -17 78 78 W 12 19 30.45 1031 2 3 N/A
10:56 am 10:56 Cloudy with Light Snow 7 -13.9 1 -17.2 76 76 W 13 20 30.38 1029 2 3 N/A
11:31 am 11:31 Cloudy with Light Snow 10 -12 3 -16 72 72 W 13 20 30.42 1030 4 6 N/A
11:41 am 11:41 Cloudy with Light Snow 10 -12 3 -16 72 72 W 12 19 30.42 1030 4 6 N/A
11:56 am 11:56 Cloudy with Light Snow 11 -11.7 3 -16.1 70 70 W 14 22 30.37 1028 4 6 N/A
12:51 pm 12:51 Cloudy with Light Snow 12 -11 3 -16 67 67 W 13 20 30.39 1029 3 5 N/A
12:56 pm 12:56 Cloudy with Light Snow 13 -10.6 4 -15.6 67 67 W 15 24 30.35 1028 3 5 N/A
1:06 pm 13:06 Cloudy with Light Snow 12 -11 3 -16 67 67 WSW 13 20 30.39 1029 4 6 N/A
1:39 pm 13:39 Cloudy with Light Snow 16 -9 3 -16 57 57 WNW 13 20 30.39 1029 5 8 N/A
1:56 pm 13:56 Cloudy 15 -9.4 4 -15.6 61 61 W 14 22 30.35 1028 7 11 N/A
2:33 pm 14:33 Cloudy with Light Snow 12 -11 3 -16 67 67 WSW 12 19 30.39 1029 6 10 N/A
2:42 pm 14:42 Cloudy with Light Snow 12 -11 3 -16 67 67 W 13 20 30.39 1029 4 6 N/A
2:56 pm 14:56 Cloudy with Light Snow 12 -11.1 3 -16.1 67 67 W 12 19 30.36 1028 4 6 N/A
3:32 pm 15:32 Cloudy with Light Snow 12 -11 5 -15 73 73 W 10 17 30.42 1030 9 14 N/A
3:56 pm 15:56 Cloudy with Light Snow 13 -10.6 4 -15.6 67 67 W 12 19 30.38 1029 9 14 N/A
4:28 pm 16:28 Cloudy with Light Snow 10 -12 3 -16 72 72 WNW 14 22 30.42 1030 9 14 N/A
4:56 pm 16:56 Cloudy with Light Snow 11 -11.7 3 -16.1 70 70 WNW 10 17 30.40 1029 9 14 N/A
5:10 pm 17:10 Cloudy with Light Snow 10 -12 3 -16 72 72 WNW 13 20 30.42 1030 9 14 N/A
5:56 pm 17:56 Cloudy 9 -12.8 2 -16.7 73 73 WNW 13 20 30.41 1030 10 16 N/A
6:07 pm 18:07 Cloudy with Light Snow 9 -13 1 -17 72 72 WNW 13 20 30.42 1030 10 16 N/A
6:56 pm 18:56 Cloudy with Light Snow 9 -12.8 1 -17.2 70 70 W 14 22 30.43 1031 9 14 N/A
7:56 pm 19:56 Cloudy with Light Snow 8 -13.3 N/A 69 69 W 9 15 30.45 1031 9 14 N/A
8:56 pm 20:56 Clear 3 -16.1 -3 -19.4 76 76 WNW 8 13 30.47 1032 10 16 N/A
9:56 pm 21:56 Clear 1 -17.2 -6 -21.1 72 72 WNW 5 7 30.48 1032 10 16 N/A
10:56 pm 22:56 Clear -1 -18.3 -5 -20.6 82 82 NW 8 13 30.49 1032 10 16 N/A
11:56 pm 23:56 Clear -4 -20 -10 -23.3 75 75 WNW 5 7 30.49 1033 10 16 N/A

Powered by AerisWeather